星链-5050 (STARLINK-5050 )

导读 | 豆包AI

STARLINK-5050是美国太空探索技术公司(SpaceX)发射的星链(Starlink)卫星,于2022年9月24日发射,属于星链星座组网卫星,旨在为全球提供高速低延迟互联网服务,尤其覆盖偏远地区与网络基础设施薄弱区域,依托星链星座部署推动全球互联互通,目前在轨运行服务。

基本信息
目录编号:
53890
目录名称:
STARLINK-5050
国际标识:
2022-119E
轨道中心:
EARTH
卫星名称:
星链-5050
卫星全名:
星链-5050 (STARLINK-5050 )
卫星状态:
在轨 (已飞行1314 天)
发射日期:
2022-09-24 UTC
国别 :
美国 (US)
星等 :
--
轨道信息
数据来源 国际轨道数据
星历时间: 2026-04-30T12:38:23+0800
11小时前
查看轨道信息
半长轴: 6917.892km
偏心率: 0.0001588
轨道倾角: 53.219°
近地点辐角 85.733°
升交点赤经 57.695°
平近点角 274.385°
近地点: 538.656km
远地点: 540.854km
周期: 95.438分钟
每日圈数: 15.088365
详细信息
固有亮度:
5
最大亮度:
2.5
卫星平台:
Starlink v1.5
覆盖范围:
全球
运营商:
太空探索技术公司
运营商所在国:
美国
制造商(研发单位):
太空探索技术公司
制造商所在国:
美国
使用方式:
暂无
卫星简介
星链(Starlink)计划是由太空探索技术公司(SpaceX)提出的一个巨型低轨卫星互联网星座项目,计划在2019年至2024年间在太空搭建由约1.2万颗卫星组成的“星链”网络,其中1584颗将部署在地球上空550千米处的近地轨道,并从2020年开始工作。该卫星仍在工作。
2D轨道图
3D轨道图
轨道高度分析图
轨道倾角分析图
轨道综合分析图
查看轨道综合分析图